DECAYED

STARLINK-1712, 46581 (Decayed)

Orbit data source: Space-Track

STARLINK-1712, 46581 was a payload satellite owned by SpaceX/Seattle (US) in LEO that was launched on Tue, 06 Oct 2020 UTC via an FALCON 9 launch vehicle from the Air Force Eastern Test Range (AFETR). Payload-class satellites include a variety of spacecraft equipped with specific instruments for various scientific and technological missions. These include communications satellites like Starlink; space stations such as the ISS; scientific satellites like the Hubble; Earth observation satellites from companies like Planet Labs, Umbra, and HawkEye 360; GPS; miniature CubeSats for education and research; and military/defense satellites.

Not visible in the next 10 days
Identifier
46581, 2020-070BB
Orbit
Decayed
Country
Flag of USUS
Related business
Manufacturer
SpaceX/Seattle
Mission
Decayed Commercial Communications
Bus & Motor
STARLINK, Unknown motor
Mass
260 kg wet, ~248 kg dry
Launch date (UTC)
2020-10-06 (6 years ago)
Launch vehicle
FALCON 9
Launch site
Air Force Eastern Test Range (AFETR)
Object type
Payload
Rocket body
Debris
Shape & HBR
Box + 1 Pan, 10.1 m
Radar Cross Section
13.562 m², Large (>1 m²)

Expand to show TLE details & history
Last TLE update: 6 months ago

TLE from 6 months ago
0 STARLINK-1712
1 46581U 20070BB  26076.77422564  .11543896  12464-4  50333-3 0  9996
2 46581  53.0131  37.5709 0003761 274.1981  85.8636 16.43462757302162
Epoch: 2026-03-17T18:34Z
TLE epoch observation values (Epoch: 2026-03-17T18:34:53.095Z)
Latitude
-0.00007°
Longitude
-56.4979°
Altitude
157.358 km
Speed
7.813 km/s
True Right ascension
02h 30m 17s
True Declination
0° 00' 00"
Sunlit
Object was in daylight at epoch
Visualization orbit readout
Latitude
Unknown
Longitude
Unknown
Altitude
Unknown
Speed
Unknown
Apparent Right ascension
Unknown
Apparent Declination
Unknown
Sunlit
N/A
Visualization observer readout
Local Sidereal Time
20:53:34
Azimuth
Unknown
Elevation
Unknown
Doppler factor
Unknown
Orbital elements
Apogee altitude
159.359 km
Perigee altitude
154.443 km
Semi-major axis
6,535.038 km
Eccentricity
0.00038
Inclination
53.0131°
RAAN
37.5709°
Arg. of periapsis
274.1981°
True anomaly
85.90659°
Mean anomaly
85.8636°
Eccentric anomaly
85.88509°
Mean motion
4.10838 °/min
Orbital period
87.63 mins
BSTAR
0.00050333
Loading maneuver chart data...
Computing Atmospheric mass density...

Documentation

Showing up to 5 results
|